Overview Statistics Trail Chart Weather Telemetry Raw packets
 

This is the latest recevied weather packets stored in our database for station/object IW2NIA-3. If no packets are shown the sender has not sent any weather packets the latest 10 day(s).

<< 23 24 25 26 27 28 29 >>
Time Temp. Humidity Pressure Rain* Wind** Luminosity Snow
1788107610 29.44° C 46% 1013.5 hPa 0 mm - - -
1788106722 30° C 44% 1013.6 hPa 0 mm - - -
1788105819 30.56° C 44% 1013.5 hPa 0 mm - - -
1788104916 30° C 46% 1013.7 hPa 0 mm - - -
1788104017 30° C 45% 1013.7 hPa 0 mm - - -
1788103110 30° C 46% 1013.8 hPa 0 mm - - -
1788102225 29.44° C 48% 1013.8 hPa 0 mm - - -
1788101320 30° C 52% 1013.9 hPa 0 mm - - -
1788100416 29.44° C 47% 1014 hPa 0 mm - - -
1788099526 30° C 46% 1014.1 hPa 0 mm - - -
1788098621 29.44° C 49% 1014.2 hPa 0 mm - - -
1788097720 28.89° C 48% 1014.2 hPa 0 mm - - -
1788096812 28.89° C 49% 1014.3 hPa 0 mm - - -
1788095913 28.89° C 49% 1014.6 hPa 0 mm - - -
1788095025 28.89° C 50% 1014.7 hPa 0 mm - - -
1788094128 28.89° C 51% 1014.8 hPa 0 mm - - -
1788093224 28.89° C 48% 1014.9 hPa 0 mm - - -
1788092315 28.33° C 51% 1014.9 hPa 0 mm - - -
1788091409 27.78° C 50% 1015 hPa 0 mm - - -
1788090509 27.78° C 50% 1015 hPa 0 mm - - -
1788089628 27.78° C 53% 1015.1 hPa 0 mm - - -
1788088718 27.78° C 56% 1015.2 hPa 0 mm - - -
1788087828 27.22° C 58% 1015.4 hPa 0 mm - - -
1788086923 26.67° C 59% 1015.5 hPa 0 mm - - -
1788086012 26.11° C 62% 1015.6 hPa 0 mm - - -

* Rain latest hour (hover to see other rain measurements)
** Current wind speed in m/s (hover to see current wind gust speed)